Weather History for Niagara Falls, NY

Change the Weather History Date:

Sunday, April 13, 2014

  Actual Average Record
Temperature  
Mean Temperature 60 °F -  
Max Temperature 73 °F 53 °F 73 °F (2014)
Min Temperature 46 °F 34 °F 22 °F (1992)
Degree Days  
Heating Degree Days 6    
Growing Degree Days 10 (Base 50)    
Moisture  
Dew Point 47 °F    
Average Humidity 65    
Maximum Humidity 80    
Minimum Humidity 48    
Precipitation  
Precipitation 0.10 in - - ()
Sea Level Pressure  
Sea Level Pressure 29.85 in    
Wind  
Wind Speed 13 mph (SSW)    
Max Wind Speed 23 mph    
Max Gust Speed 32 mph    
Visibility 10 miles    
Events Rain    
Averages and records for this station are not official NWS values.
T = Trace of Precipitation, MM = Missing Value Source: NWS Daily Summary

Daily Weather History Graph

Daily Weather History Graph

Search for Another Location

Airport:

Trip Planner

Search our weather history database for the weather conditions in past years. The results will help you decide how hot, cold, wet, or windy it might be!

Date:

Astronomy

Apr. 13, 2014 Rise Set
Actual Time 6:37 AM EDT 7:56 PM EDT
Civil Twilight 6:07 AM EDT 8:25 PM EDT
Nautical Twilight 5:32 AM EDT 9:01 PM EDT
Astronomical Twilight 4:55 AM EDT 9:38 PM EDT
Moon 6:30 PM EDT (4/13) 5:37 AM EDT (4/13)
Length of Visible Light 14h 17m
Length of Day
13h 19m
Waxing Gibbous, 97% of the Moon is Illuminated
Apr 13
Waxing Gibbous
Apr 15
Full
Apr 22
Last Quarter
Apr 29
New
May 6
First Quarter

Hourly Weather History & Observations

Time (EDT) Temp. Windchill Dew Point Humidity Pressure Visibility Wind Dir Wind Speed Gust Speed Precip Events Conditions
12:53 AM 48.9 °F - 39.0 °F 69% 30.02 in 7.0 mi East 16.1 mph - 0.05 in Rain Light Rain
1:53 AM 46.9 °F - 39.9 °F 77% 29.95 in 10.0 mi East 13.8 mph - 0.05 in Rain Light Rain
2:53 AM 46.9 °F - 41.0 °F 80% 29.92 in 10.0 mi East 11.5 mph - 0.00 in   Overcast
3:53 AM 46.0 °F 40.6 °F 39.9 °F 79% 29.92 in 10.0 mi ENE 11.5 mph - N/A   Overcast
4:53 AM 46.0 °F 41.0 °F 39.9 °F 79% 29.90 in 10.0 mi East 10.4 mph - N/A   Mostly Cloudy
5:53 AM 46.0 °F 41.0 °F 39.9 °F 79% 29.87 in 10.0 mi SE 10.4 mph - N/A   Scattered Clouds
6:53 AM 46.9 °F - 39.9 °F 77% 29.88 in 10.0 mi South 4.6 mph - N/A   Overcast
7:00 AM 46.9 °F - 39.9 °F 77% 29.86 in 10.0 mi Calm Calm - N/A   Mostly Cloudy
7:53 AM 48.9 °F - 42.1 °F 77% 29.88 in 10.0 mi Calm Calm - N/A   Mostly Cloudy
8:53 AM 54.0 °F - 44.1 °F 69% 29.88 in 10.0 mi SSW 6.9 mph - N/A   Mostly Cloudy
9:53 AM 63.0 °F - 48.0 °F 58% 29.88 in 10.0 mi SW 11.5 mph - N/A   Mostly Cloudy
10:53 AM 64.9 °F - 48.0 °F 54% 29.87 in 10.0 mi SW 10.4 mph - N/A   Overcast
11:53 AM 71.1 °F - 51.1 °F 49% 29.83 in 10.0 mi SW 20.7 mph 25.3 mph N/A   Mostly Cloudy
12:53 PM 71.1 °F - 51.1 °F 49% 29.82 in 10.0 mi SW 23.0 mph 32.2 mph N/A   Mostly Cloudy
1:53 PM 73.9 °F - 53.1 °F 48% 29.80 in 10.0 mi SW 23.0 mph 27.6 mph N/A   Mostly Cloudy
2:53 PM 73.0 °F - 53.1 °F 49% 29.80 in 10.0 mi WSW 19.6 mph 32.2 mph N/A   Mostly Cloudy
3:53 PM 73.0 °F - 53.1 °F 49% 29.78 in 10.0 mi WSW 17.3 mph - N/A   Mostly Cloudy
4:53 PM 73.9 °F - 55.0 °F 52% 29.79 in 10.0 mi WSW 23.0 mph 28.8 mph N/A   Mostly Cloudy
5:53 PM 73.0 °F - 54.0 °F 51% 29.78 in 10.0 mi WSW 18.4 mph 28.8 mph N/A   Scattered Clouds
6:53 PM 71.1 °F - 53.1 °F 53% 29.78 in 10.0 mi WSW 16.1 mph 27.6 mph N/A   Mostly Cloudy
7:53 PM 70.0 °F - 53.1 °F 55% 29.79 in 10.0 mi WSW 13.8 mph - N/A   Mostly Cloudy
8:53 PM 57.0 °F - 48.0 °F 72% 29.80 in 10.0 mi South 12.7 mph - N/A   Mostly Cloudy
9:53 PM 55.0 °F - 48.0 °F 77% 29.80 in 10.0 mi South 4.6 mph - N/A   Mostly Cloudy
10:53 PM 55.0 °F - 48.0 °F 77% 29.79 in 10.0 mi South 4.6 mph - N/A   Scattered Clouds
11:53 PM 55.0 °F - 48.0 °F 77% 29.77 in 9.0 mi South 3.5 mph - N/A   Clear